Location: Congrier
(47.8099°N, 1.1170°W)
Time: 09:41:50
(UTC+00:00)

Cosmos 1975 Rocket - Pass Details

Date: 28 January 2023
Orbit: 602 x 633 km, 82.5° (Epoch: 23 March)

Event Time Altitude Azimuth Distance (km) Brightness Sun altitude
Rises 18:09:41 0° 200° (SSW) 2,916 7.0 -12.1°
Reaches altitude 10° 18:11:58 10° 205° (SSW) 2,011 6.2 -12.4°
Maximum altitude 18:16:19 53° 283° (WNW) 780 3.9 -13.1°
Drops below altitude 10° 18:20:43 10° 1° (N) 2,017 5.6 -13.9°
Sets 18:23:00 0° 6° (N) 2,924 6.3 -14.2°
